This demonstration page uses our WeatherBlox Daily Observations layout. Learn more.

Left ArrowRight Arrow

39.29038, -76.61219

Hourly Observations for July 3, 2020

Temp ( °F °C ) Dew Point ( °F °C ) Humidity (%) Winds ( mph kmh ) Pressure ( in mb ) Visibility ( mi km ) Precip ( " mm )
12:54 am 00:54 Mostly Clear 75 23.9 65 18.3 71 71 W 6 9 29.86 1011 10 16 0.00 0.00
1:54 am 01:54 Clear 75 23.9 65 18.3 71 71 W 5 7 29.85 1011 10 16 0.00 0.00
2:54 am 02:54 Partly Cloudy 76 24.4 63 17.2 64 64 W 5 7 29.85 1011 10 16 0.00 0.00
3:54 am 03:54 Mostly Clear 74 23.3 63 17.2 69 69 W 5 7 29.85 1011 10 16 0.00 0.00
4:54 am 04:54 Mostly Clear 75 23.9 62 16.7 64 64 WNW 6 9 29.85 1011 10 16 0.00 0.00
5:54 am 05:54 Mostly Sunny 76 24.4 62 16.7 62 62 NW 5 7 29.86 1011 10 16 0.00 0.00
6:54 am 06:54 Sunny 76 24.4 64 17.8 67 67 NW 5 7 29.86 1011 10 16 0.00 0.00
7:54 am 07:54 Sunny 81 27.2 63 17.2 54 54 NW 7 11 29.88 1012 10 16 0.00 0.00
8:54 am 08:54 Sunny 84 28.9 64 17.8 51 51 NW 8 13 29.89 1012 10 16 0.00 0.00
9:54 am 09:54 Sunny 87 30.6 67 19.4 51 51 VRB 6 9 29.89 1012 10 16 0.00 0.00
10:54 am 10:54 Mostly Sunny 90 32.2 68 20 48 48 WNW 8 13 29.88 1012 10 16 0.00 0.00
11:54 am 11:54 Mostly Sunny 93 33.9 66 18.9 41 41 NNW 7 11 29.88 1012 10 16 0.00 0.00
12:54 pm 12:54 Mostly Sunny 93 33.9 66 18.9 41 41 NW 8 13 29.87 1012 10 16 0.00 0.00
1:54 pm 13:54 Mostly Sunny 96 35.6 63 17.2 34 34 VRB 6 9 29.86 1011 10 16 0.00 0.00
2:54 pm 14:54 Mostly Sunny 95 35 64 17.8 36 36 NW 8 13 29.85 1011 10 16 0.00 0.00
3:54 pm 15:54 Mostly Sunny 95 35 64 17.8 36 36 NW 8 13 29.84 1011 10 16 0.00 0.00
4:54 pm 16:54 Partly Cloudy 94 34.4 64 17.8 37 37 WNW 8 13 29.83 1010 10 16 0.00 0.00
5:54 pm 17:54 Mostly Sunny 94 34.4 66 18.9 40 40 WNW 7 11 29.81 1009 10 16 0.00 0.00
6:54 pm 18:54 Mostly Sunny 92 33.3 67 19.4 44 44 WSW 10 17 29.80 1009 10 16 0.00 0.00
7:54 pm 19:54 Mostly Sunny 89 31.7 67 19.4 48 48 WSW 7 11 29.81 1009 10 16 0.00 0.00
8:54 pm 20:54 Partly Cloudy 87 30.6 67 19.4 51 51 W 3 6 29.82 1010 10 16 0.00 0.00
9:54 pm 21:54 Partly Cloudy 82 27.8 69 20.6 65 65 Calm 29.83 1010 10 16 0.00 0.00
10:54 pm 22:54 Partly Cloudy 84 28.9 65 18.3 53 53 NNE 10 17 29.85 1011 10 16 0.00 0.00
11:54 pm 23:54 Partly Cloudy 82 27.8 65 18.3 56 56 N 3 6 29.85 1011 10 16 0.00 0.00

Powered by AerisWeather